Regional Weather Roundup
Issued by NWS Midland/Odessa, TX

Home | Current Version | Previous Version | Text Only | Print | Product List | Glossary On
Versions: 1 2 3 4 5 6 7 8 9 10 11 12 13 14 15 16 17 18 19 20 21 22 23 24 25 26 27 28 29 30 31 32 33 34 35 36 37 38 39 40 41 42 43 44 45 46 47 48 49 50
000
ASUS44 KMAF 191710
RWRMAF
MIDLAND AREA WEATHER ROUNDUP
NATIONAL WEATHER SERVICE MIDLAND TX
1100 AM CST FRI DEC 19 2014

...IN SOUTHWEST TEXAS AND SOUTHEAST NEW MEXICO...

CITY           SKY/WX    TMP DP  RH WIND       PRES   REMARKS
ALPINE         SUNNY     54  31  42 CALM      30.25R
ANDREWS        CLOUDY    40  38  94 CALM      30.19S FOG
ARTESIA        SUNNY     48  32  53 NE7       30.19S
BIG SPRING     CLOUDY    43  40  88 CALM      30.23R
CARLSBAD       SUNNY     51  35  54 VRB6      30.18R
DRYDEN           N/A     57  42  57 VRB3      30.16R
FORT STOCKTON  SUNNY     54  36  50 W8        30.18S
GUAD PASS      MOSUNNY   40  37  89 SW14      30.20R WCI  32
HOBBS          PTSUNNY  N/A N/A N/A CALM      30.19R FOG
MARFA          SUNNY     52  32  46 W9        30.23R
MIDLAND AIRPK  CLOUDY    43  39  86 CALM      30.21R
MIDLAND INTL   CLOUDY    42  39  89 CALM      30.19S
ODESSA         CLOUDY    42  32  67 NE3       30.19S HAZE
PECOS          SUNNY     50  38  63 W5        30.20R
PRESIDIO       FAIR      54  35  48 W3        30.21S
SEMINOLE       CLOUDY    38  38  99 CALM      30.20S FOG
SNYDER         CLOUDY    40  37  86 CALM      30.22R
WINK           CLOUDY    41  36  82 NE6       30.19S HAZE    WCI  37
$$
...OTHER STATIONS IN TEXAS...

CITY           SKY/WX    TMP DP  RH WIND       PRES   REMARKS
ABILENE        CLOUDY    45  41  86 N3        30.20S
AMARILLO       FOG       37  36  96 S9        30.18S VSB 1/4 WCI  30
AUSTIN         CLOUDY    54  50  86 N15       30.13S
BROWNSVILLE    CLOUDY    70  66  87 NW7       30.01S
CORPUS CHRISTI DRIZZLE   56  54  93 N16       30.06R
DALLAS FTW     CLOUDY    47  44  90 N13       30.20S FOG
DEL RIO        CLOUDY    63  51  65 N10       30.13R
EL PASO        MOSUNNY   46  39  76 VRB3      30.23R
HOUSTON INT    RAIN      54  52  93 N17       30.07F FOG
LUBBOCK        FOG       37  37 100 S6        30.19R VSB 1/2 WCI  32
SAN ANGELO     CLOUDY    46  43  89 NE7       30.20R
SAN ANTONIO    PTSUNNY   57  49  74 NE14G24   30.11S
WACO           CLOUDY    48  47  96 N12       30.18S FOG
WICHITA FALLS  NOT AVBL
$$
...OTHER LOCATIONS IN NEW MEXICO...

CITY           SKY/WX    TMP DP  RH WIND       PRES   REMARKS
ALAMAGORDO     SUNNY     45  34  65 NW14      30.23R WCI  38
ALBUQUERQUE    MOSUNNY   39  24  55 NW20      30.25R WCI  29
CANNON AFB     CLOUDY    38  31  78 N1        30.16R
CLOVIS         CLOUDY    37  34  87 CALM      30.17R
HOLLOMAN AFB   SUNNY     44  37  78 N12       30.22R WCI  38
ROSWELL        SUNNY     46  31  55 E7        30.18S
RUIDOSO        SUNNY     36  19  51 NW14G21   30.19S WCI  27
SANTA FE       SUNNY     32  23  69 N15       30.19R WCI  22
TRUTH OR CONSE SUNNY     39  27  62 CALM      30.24R
TUCUMCARI      CLOUDY    36  30  79 NW3       30.16R
$$


USA.gov is the U.S. government's official web portal to all federal, state and local government web resources and services.